Flag for China Weather past 2 weeks in Shenzhen, Guangdong, China

Now
84 °F

Clear.


Feels Like: 94 °F
Forecast: 78 / 92 °F
Wind: 6 mph from Southeast

Location: Shenzhen Airport

Current Time: Aug 28, 2014 at 9:46:31 PM

Latest Report: Aug 28, 2014 at 9:00 PM


Visibility: 10 mi

Pressure: 29.92 "Hg

Humidity: 79%

Dew point: 77 °F

Location of ShenzhenLocation

Historic Weather in Shenzhen — Graph

°F

Shenzhen temperature yesterday

Maximum temperature yesterday: 93 °F (at 2:00 PM)
Minimum temperature yesterday: 82 °F (at 4:00 AM)
Average temperature yesterday: 87 °F

Past Weeks' High & Low Weather Summary

 TemperatureHumidityPressure
High93 °F (Aug 27, 2:00 PM)94% (Aug 19, 11:00 PM)29.89 "Hg (Aug 19, 11:00 PM)
Low77 °F (Aug 20, 7:00 AM)56% (Aug 27, 11:00 AM)29.65 "Hg (Aug 13, 8:00 PM)
Average85 °F79%29.80 "Hg
* Reported Aug 13 8:00 PM — Aug 28 8:00 PM, Shenzhen, Weather by CustomWeather, © 2014

Note: Actual official high and low records may vary slightly from our data, if they occured in-between our weather recording intervals... More about our weather records

Advertising

Shenzhen weather history for previous 24 hours

 ConditionsComfort  
Time TempWeatherWind HumidityBarometerVisibility
8:00 PM
Aug 28
86 °FClear.10 mph79%29.89 "Hg10 mi
7:00 PM86 °FPassing clouds.10 mph79%29.86 "HgN/A
6:00 PM90 °FPassing clouds.13 mph63%29.86 "HgN/A
5:00 PM90 °FPassing clouds.8 mph71%29.83 "HgN/A
4:00 PM91 °FPassing clouds.8 mph63%29.83 "HgN/A
3:00 PM90 °FScattered clouds.10 mph67%29.83 "HgN/A
2:00 PM91 °FScattered clouds.13 mph63%29.86 "HgN/A
1:00 PM90 °FScattered clouds.13 mph63%29.86 "HgN/A
12:00 PM91 °FScattered clouds.15 mph63%29.89 "HgN/A
11:00 AM90 °FScattered clouds.13 mph67%29.89 "HgN/A
10:00 AM88 °FScattered clouds.15 mph70%29.89 "HgN/A
9:00 AM88 °FScattered clouds.13 mph70%29.89 "HgN/A
8:00 AM84 °FPassing clouds.13 mph79%29.86 "HgN/A
7:00 AM84 °FSunny.13 mph79%29.86 "Hg10 mi
6:00 AM82 °FClear.13 mph79%29.83 "Hg10 mi
5:00 AM82 °FPassing clouds.6 mph79%29.83 "HgN/A
4:00 AM82 °FClear.8 mph84%29.83 "Hg10 mi
3:00 AM82 °FClear.10 mph84%29.83 "Hg10 mi
2:00 AM82 °FPassing clouds.8 mph84%29.86 "HgN/A
1:00 AM84 °FPassing clouds.8 mph79%29.86 "HgN/A
12:00 AM82 °FSprinkles. Partly cloudy.6 mph89%29.89 "HgN/A
11:00 PM
Aug 27
86 °FPassing clouds.10 mph70%29.86 "HgN/A
10:00 PM86 °FPassing clouds.13 mph70%29.86 "HgN/A
9:00 PM86 °FPassing clouds.15 mph70%29.83 "HgN/A
Weather by CustomWeather, © 2014

See weather overviewHow to use our weather pages